Youngstown, OH

8:50 AM EST on December 11, 2017 (GMT -0500)
Youngstown-Warren Regional

Weather History for KYNG - May, 2013

Change the Weather History Date:

Tuesday, May 21, 2013

  Actual Average Record
Temperature  
Mean Temperature 77 °F 59 °F  
Max Temperature 86 °F 70 °F 89 °F (1934)
Min Temperature 67 °F 48 °F 32 °F (2002)
Degree Days  
Heating Degree Days 0 7  
Month to date heating degree days 106 194  
Since 1 July heating degree days 6016 6221  
Cooling Degree Days 12 1  
Month to date cooling degree days 31 14  
Year to date cooling degree days 38 23  
Growing Degree Days 25 (Base 50)    
Moisture  
Dew Point 64 °F    
Average Humidity 68    
Maximum Humidity 93    
Minimum Humidity 43    
Precipitation  
Precipitation 0.00 in 0.13 in 1.95 in (2004)
Month to date precipitation 0.65 2.49  
Year to date precipitation 10.95 13.49  
Snow  
Snow 0.00 in 0.00 in - ()
Month to date snowfall T 0.0  
Since 1 July snowfall 80.9 62.7  
Snow Depth 0.00 in    
Sea Level Pressure  
Sea Level Pressure 29.87 in    
Wind  
Wind Speed 8 mph (SSW)    
Max Wind Speed 18 mph    
Max Gust Speed 25 mph    
Visibility 8 miles    
Events      
T = Trace of Precipitation, MM = Missing Value Source: NWS Daily Summary

Daily Weather History Graph

Daily Weather History Graph

Search for Another Location

Airport or City:

Trip Planner

Search our weather history database for the weather conditions in past years. The results will help you decide how hot, cold, wet, or windy it might be!

Date:

Astronomy

May. 21, 2013 Rise Set
Actual Time 5:58 AM EDT 8:40 PM EDT
Civil Twilight 5:26 AM EDT 9:12 PM EDT
Nautical Twilight 4:46 AM EDT 9:52 PM EDT
Astronomical Twilight 4:00 AM EDT 10:38 PM EDT
Moon 4:50 PM EDT (5/21) 3:28 AM EDT (5/21)
Length of Visible Light 15h 45m
Length of Day
14h 41m
Waxing Gibbous, 84% of the Moon is Illuminated
May 21
Waxing Gibbous
May 25
Full
May 31
Last Quarter
Jun 8
New
Jun 16
First Quarter

Hourly Weather History & Observations

Time (EDT) Temp. Heat Index Dew Point Humidity Pressure Visibility Wind Dir Wind Speed Gust Speed Precip Events Conditions
12:51 AM 71.1 °F - 66.0 °F 84% 29.91 in 8.0 mi South 5.8 mph - N/A   Partly Cloudy
1:51 AM 70.0 °F - 66.0 °F 87% 29.90 in 7.0 mi SSW 5.8 mph - N/A   Scattered Clouds
2:51 AM 70.0 °F - 66.0 °F 87% 29.90 in 7.0 mi SSW 6.9 mph - N/A   Mostly Cloudy
3:51 AM 71.1 °F - 66.0 °F 84% 29.90 in 7.0 mi SSW 6.9 mph - N/A   Mostly Cloudy
4:51 AM 68.0 °F - 66.0 °F 93% 29.91 in 6.0 mi SSW 4.6 mph - N/A   Scattered Clouds
5:51 AM 68.0 °F - 66.0 °F 93% 29.91 in 5.0 mi South 5.8 mph - N/A   Scattered Clouds
6:51 AM 68.0 °F - 66.0 °F 93% 29.92 in 4.0 mi South 4.6 mph - N/A   Mostly Cloudy
7:51 AM 71.1 °F - 66.9 °F 87% 29.92 in 5.0 mi South 4.6 mph - N/A   Mostly Cloudy
8:51 AM 73.9 °F - 66.9 °F 79% 29.90 in 7.0 mi SSW 6.9 mph - N/A   Overcast
9:51 AM 79.0 °F - 66.9 °F 66% 29.89 in 7.0 mi SW 9.2 mph - N/A   Overcast
10:51 AM 78.1 °F - 64.9 °F 64% 29.89 in 7.0 mi SW 9.2 mph 19.6 mph N/A   Overcast
11:51 AM 81.0 °F 83.3 °F 66.9 °F 62% 29.88 in 10.0 mi South 11.5 mph 17.3 mph N/A   Overcast
12:51 PM 81.0 °F 83.3 °F 66.9 °F 62% 29.88 in 10.0 mi SSW 10.4 mph - N/A   Overcast
1:51 PM 84.0 °F 85.4 °F 64.0 °F 51% 29.86 in 10.0 mi South 9.2 mph 18.4 mph N/A   Mostly Cloudy
2:51 PM 84.9 °F 85.0 °F 61.0 °F 44% 29.83 in 10.0 mi SSW 11.5 mph - N/A   Mostly Cloudy
3:51 PM 84.9 °F 85.4 °F 62.1 °F 46% 29.81 in 10.0 mi South 15.0 mph 21.9 mph N/A   Mostly Cloudy
4:51 PM 84.0 °F 83.8 °F 59.0 °F 43% 29.81 in 10.0 mi South 12.7 mph 25.3 mph N/A   Mostly Cloudy
5:51 PM 84.9 °F 84.8 °F 60.1 °F 43% 29.80 in 10.0 mi SSW 13.8 mph 24.2 mph N/A   Scattered Clouds
6:51 PM 82.9 °F 83.2 °F 60.1 °F 46% 29.80 in 10.0 mi SW 10.4 mph 18.4 mph N/A   Mostly Cloudy
7:51 PM 80.1 °F 81.1 °F 61.0 °F 52% 29.81 in 10.0 mi SSW 6.9 mph 16.1 mph N/A   Mostly Cloudy
8:51 PM 78.1 °F - 61.0 °F 56% 29.80 in 10.0 mi SSW 6.9 mph - N/A   Mostly Cloudy
9:51 PM 75.9 °F - 62.1 °F 62% 29.81 in 10.0 mi South 5.8 mph - N/A   Mostly Cloudy
10:51 PM 75.0 °F - 63.0 °F 66% 29.82 in 10.0 mi South 6.9 mph - N/A   Mostly Cloudy
11:51 PM 73.9 °F - 63.0 °F 68% 29.82 in 10.0 mi SSW 8.1 mph - N/A   Overcast